Volver al catálogo

SL-6 R/B(2)

ActivoHEO
NORAD 17147·ROCKET BODY·🇷🇺 Russia

Lanzado Nov 20, 1986 desde Plesetsk Cosmodrome

Loading…

Próximos Pases (próximas 24 horas)

TLE

ActualizadoSource: Space-Track

Época: Sep 14, 2026, 08:24 UTC

1 17147U 86091D   26257.35052846 -.00000434  00000-0  00000-0 0  9991
2 17147  71.4127  47.3631 5605825 324.2697   8.6562  2.03992172296618

Sigue SL-6 R/B(2) en tiempo real con AllMySat

Download on the App Store